Akron, OH

6:11 PM EST on December 14, 2017 (GMT -0500)
Akron Fulton International

Weather History for KAKR - November, 2013

Change the Weather History Date:

Monday, November 11, 2013

  Actual Average (KCAK) Record (KCAK)
Temperature  
Mean Temperature 39 °F -  
Max Temperature 46 °F 47 °F 72 °F (1915)
Min Temperature 30 °F 35 °F 18 °F (1957)
Degree Days  
Heating Degree Days 26    
Moisture  
Dew Point 31 °F    
Average Humidity 78    
Maximum Humidity 96    
Minimum Humidity 50    
Precipitation  
Precipitation 0.11 in - - ()
Sea Level Pressure  
Sea Level Pressure 30.15 in    
Wind  
Wind Speed 9 mph (West)    
Max Wind Speed 15 mph    
Max Gust Speed 26 mph    
Visibility 7 miles    
Events Rain , Snow    
Averages and records for this station are not official NWS values.
T = Trace of Precipitation, MM = Missing Value Source: NWS Daily Summary

Daily Weather History Graph

Daily Weather History Graph

Search for Another Location

Airport or City:

Trip Planner

Search our weather history database for the weather conditions in past years. The results will help you decide how hot, cold, wet, or windy it might be!

Date:

Astronomy

Nov. 11, 2013 Rise Set
Actual Time 7:08 AM EST 5:10 PM EST
Civil Twilight 6:39 AM EST 5:39 PM EST
Nautical Twilight 6:06 AM EST 6:12 PM EST
Astronomical Twilight 5:34 AM EST 6:45 PM EST
Moon 1:53 PM EST (11/11) 12:49 AM EST (11/11)
Length of Visible Light 10h 59m
Length of Day
10h 01m
Waxing Gibbous, 66% of the Moon is Illuminated
Nov 11
Waxing Gibbous
Nov 17
Full
Nov 25
Last Quarter
Dec 2
New
Dec 9
First Quarter

Hourly Weather History & Observations

Time (EST) Temp. Windchill Dew Point Humidity Pressure Visibility Wind Dir Wind Speed Gust Speed Precip Events Conditions
12:54 AM 34.0 °F 28.0 °F 28.0 °F 79% 30.28 in 10.0 mi SW 6.9 mph - N/A   Clear
1:54 AM 32.0 °F 26.4 °F 28.0 °F 85% 30.27 in 10.0 mi WSW 5.8 mph - N/A   Clear
2:54 AM 32.0 °F 27.5 °F 27.0 °F 82% 30.27 in 10.0 mi SW 4.6 mph - N/A   Clear
3:54 AM 33.1 °F 27.7 °F 28.9 °F 85% 30.25 in 10.0 mi SSW 5.8 mph - N/A   Mostly Cloudy
4:54 AM 34.0 °F 29.8 °F 30.0 °F 85% 30.25 in 10.0 mi SSW 4.6 mph - N/A   Overcast
5:54 AM 35.1 °F 30.1 °F 30.0 °F 82% 30.23 in 10.0 mi SSW 5.8 mph - N/A   Overcast
6:54 AM 35.1 °F 30.1 °F 30.0 °F 82% 30.23 in 10.0 mi South 5.8 mph - N/A   Overcast
7:54 AM 36.0 °F 27.1 °F 30.0 °F 79% 30.21 in 10.0 mi SSW 13.8 mph 23.0 mph N/A   Overcast
8:54 AM 37.9 °F 30.9 °F 30.0 °F 73% 30.20 in 10.0 mi SSW 10.4 mph - N/A   Overcast
9:54 AM 41.0 °F 33.1 °F 30.0 °F 65% 30.19 in 10.0 mi SW 15.0 mph - N/A   Overcast
10:54 AM 42.1 °F 34.9 °F 30.9 °F 65% 30.15 in 10.0 mi SSW 13.8 mph - N/A   Overcast
11:54 AM 44.1 °F 37.1 °F 30.0 °F 58% 30.12 in 10.0 mi SW 15.0 mph 26.5 mph N/A   Overcast
12:54 PM 45.0 °F 38.9 °F 30.0 °F 56% 30.09 in 10.0 mi SW 12.7 mph - N/A   Overcast
1:54 PM 46.0 °F 41.0 °F 28.9 °F 51% 30.07 in 10.0 mi SW 10.4 mph - N/A   Overcast
2:54 PM 46.0 °F 40.6 °F 28.0 °F 50% 30.05 in 10.0 mi SW 11.5 mph - N/A   Overcast
3:54 PM 46.0 °F 40.6 °F 28.0 °F 50% 30.04 in 10.0 mi SW 11.5 mph - N/A   Overcast
4:54 PM 46.0 °F 41.9 °F 28.9 °F 51% 30.03 in 10.0 mi SW 8.1 mph - N/A   Overcast
5:54 PM 46.0 °F 42.5 °F 30.0 °F 54% 30.05 in 10.0 mi NW 6.9 mph - N/A   Overcast
6:54 PM 41.0 °F 35.2 °F 37.9 °F 89% 30.08 in 6.0 mi NW 9.2 mph - 0.02 in Rain Light Rain
7:04 PM 41.0 °F 34.3 °F 37.4 °F 87% 30.06 in 6.0 mi NW 11.5 mph 17.3 mph 0.00 in Rain Light Rain
7:54 PM 39.9 °F 33.4 °F 37.0 °F 89% 30.09 in 7.0 mi NW 10.4 mph - 0.03 in Rain Light Rain
8:47 PM 35.6 °F 28.0 °F 33.8 °F 93% 30.10 in 9.0 mi North 10.4 mph - 0.04 in Rain Light Rain
8:54 PM 35.1 °F 27.4 °F 33.1 °F 92% 30.13 in 8.0 mi North 10.4 mph - 0.05 in Rain Light Rain
9:26 PM 33.8 °F 27.0 °F 32.0 °F 93% 30.12 in 2.0 mi North 8.1 mph - 0.01 in Snow Light Snow
9:34 PM 33.8 °F 26.4 °F 30.2 °F 87% 30.12 in 1.8 mi North 9.2 mph - 0.01 in Snow Light Snow
9:54 PM 33.1 °F 25.5 °F 32.0 °F 96% 30.16 in 1.8 mi North 9.2 mph - 0.01 in Snow Light Snow
10:12 PM 33.8 °F 26.4 °F 30.2 °F 87% 30.14 in 2.0 mi North 9.2 mph - 0.00 in Snow Light Snow
10:19 PM 33.8 °F 26.4 °F 30.2 °F 87% 30.15 in 1.8 mi North 9.2 mph - 0.00 in Snow Light Snow
10:54 PM 32.0 °F 22.1 °F 30.0 °F 92% 30.18 in 1.2 mi North 13.8 mph - 0.00 in Snow Light Snow
11:15 PM 32.0 °F 24.2 °F 30.2 °F 93% 30.16 in 1.5 mi North 9.2 mph - 0.00 in Snow Light Snow
11:23 PM 32.0 °F 23.0 °F 30.2 °F 93% 30.16 in 1.2 mi NNW 11.5 mph 18.4 mph 0.00 in Snow Light Snow
11:54 PM 30.9 °F 21.2 °F 28.9 °F 92% 30.20 in 1.5 mi North 12.7 mph - 0.00 in Snow Light Snow